[TLELIST] Archives

 

[list_settings.list_name] Current TLEs

October 8th 2012 PDT

HST 1 20580U 90037B 12280.03973265 .00001913 00000-0 12694-3 0 835 2 20580 028.4676 137.9410 0003298 159.0709 200.9666 15.02863149 31426 ISS (ZARYA) 1 25544U 98067A 12282.45565542 .00010137 00000-0 18073-3 0 4316 2 25544 051.6473 278.5774 0018222 143.7637 352.5179 15.50574244795611 CXO 1 25867U 99040B 12282.66271751 .00000284 00000-0 00000+0 0 8015 2 25867 073.5061 356.5096 8725133 278.1320 000.1446 00.37803331 9583 ____________________________________________________________________ These 2-Line ...Continue Reading

[list_settings.list_name] Current TLEs

October 7th 2012 PDT

HST 1 20580U 90037B 12280.03973265 .00001913 00000-0 12694-3 0 835 2 20580 028.4676 137.9410 0003298 159.0709 200.9666 15.02863149 31426 ISS (ZARYA) 1 25544U 98067A 12281.30287037 .00010823 00000-0 19260-3 0 4253 2 25544 051.6481 284.2923 0017964 139.2788 037.8757 15.50551059795433 CXO 1 25867U 99040B 12282.66338205 .00000284 00000-0 00000+0 0 8002 2 25867 073.5054 356.5112 8725144 278.1321 000.2369 00.37803854 9582 ____________________________________________________________________ These 2-Line ...Continue Reading

[list_settings.list_name] Current TLEs

October 6th 2012 PDT

HST 1 20580U 90037B 12280.03973265 .00001913 00000-0 12694-3 0 835 2 20580 028.4676 137.9410 0003298 159.0709 200.9666 15.02863149 31426 ISS (ZARYA) 1 25544U 98067A 12280.32195853 .00007161 00000-0 13035-3 0 4196 2 25544 051.6472 289.1577 0017900 135.8547 322.2818 15.50523836795281 CXO 1 25867U 99040B 12282.66338205 .00000284 00000-0 00000+0 0 8002 2 25867 073.5054 356.5112 8725144 278.1321 000.2369 00.37803854 9582 ____________________________________________________________________ These 2-Line ...Continue Reading

[list_settings.list_name] Current TLEs

October 5th 2012 PDT

HST 1 20580U 90037B 12278.04747098 .00002994 00000-0 20570-3 0 827 2 20580 028.4689 150.9861 0003504 140.6891 219.3878 15.02858790 31125 ISS (ZARYA) 1 25544U 98067A 12279.36152381 .00002365 00000-0 48534-4 0 4135 2 25544 051.6465 293.9207 0018169 132.9926 000.5883 15.50499443795131 CXO 1 25867U 99040B 12280.02053808 +.00000108 +00000-0 +00000-0 0 00012 2 25867 073.4768 356.7373 8725772 278.1284 000.4127 00.37803504015100 ____________________________________________________________________ These 2-Line ...Continue Reading

[list_settings.list_name] Current TLEs

October 4th 2012 PDT

HST 1 20580U 90037B 12278.04747098 .00002994 00000-0 20570-3 0 827 2 20580 028.4689 150.9861 0003504 140.6891 219.3878 15.02858790 31125 ISS (ZARYA) 1 25544U 98067A 12278.43532400 .00012371 00000-0 21111-3 0 4090 2 25544 051.6470 298.5092 0018402 129.7920 230.5215 15.50492632199144 CXO 1 25867U 99040B 12277.37407591 -.00000051 +00000-0 +00000-0 0 00016 2 25867 073.4632 356.9174 8725656 278.1460 000.0789 00.37803702015096 ____________________________________________________________________ These 2-Line ...Continue Reading

[list_settings.list_name] Current TLEs

October 3rd 2012 PDT

HST 1 20580U 90037B 12277.11774599 .00003205 00000-0 22104-3 0 810 2 20580 028.4695 157.0745 0003540 132.8344 227.2595 15.02854667 30983 ISS (ZARYA) 1 25544U 98067A 12277.22587756 .00019302 00000-0 33764-3 0 4021 2 25544 051.6487 304.5037 0018321 126.0344 319.0337 15.50472016794805 CXO 1 25867U 99040B 12277.37536908 -.00000051 +00000-0 +00000-0 0 00011 2 25867 073.4632 356.9172 8725651 278.1459 000.2551 00.37803667015096 ____________________________________________________________________ These 2-Line ...Continue Reading

[list_settings.list_name] Current TLEs

October 2nd 2012 PDT

HST 1 20580U 90037B 12275.12546609 .00002771 00000-0 18949-3 0 806 2 20580 028.4698 170.1168 0003521 121.0980 239.0195 15.02841646 30683 ISS (ZARYA) 1 25544U 98067A 12276.46198043 .00019552 00000-0 34226-3 0 3966 2 25544 051.6486 308.2918 0018276 123.2706 015.1801 15.50442927794687 CXO 1 25867U 99040B 12277.37615382 -.00000051 00000-0 00000+0 0 7987 2 25867 073.4633 356.9172 8725651 278.1461 000.3618 00.37803579 9562 ____________________________________________________________________ These 2-Line ...Continue Reading

[list_settings.list_name] Current TLEs

October 1st 2012 PDT

HST 1 20580U 90037B 12275.12546609 .00002771 00000-0 18949-3 0 806 2 20580 028.4698 170.1168 0003521 121.0980 239.0195 15.02841646 30683 ISS (ZARYA) 1 25544U 98067A 12275.22750667 .00019170 00000-0 33632-3 0 3916 2 25544 051.6481 314.4086 0018341 118.9722 324.7063 15.50392883794492 CXO 1 25867U 99040B 12274.73041037 -.00000081 +00000-0 +00000-0 0 00015 2 25867 073.4513 357.0726 8728081 278.1719 000.1540 00.37807319015084 ____________________________________________________________________ These 2-Line ...Continue Reading

[list_settings.list_name] Current TLEs

September 30th 2012 PDT

HST 1 20580U 90037B 12272.20342134 .00002666 00000-0 18200-3 0 790 2 20580 028.4698 189.2479 0003213 083.3903 276.7156 15.02825422 30243 ISS (ZARYA) 1 25544U 98067A 12274.40895833 .00019729 00000-0 34623-3 0 3876 2 25544 051.6481 318.4660 0018318 116.3369 075.7199 15.50363139794368 CXO 1 25867U 99040B 12274.73288488 -.00000081 00000-0 00000+0 0 7979 2 25867 073.4514 357.0738 8728151 278.1725 000.4911 00.37805446 9552 ____________________________________________________________________ These 2-Line ...Continue Reading

[list_settings.list_name] Current TLEs

September 29th 2012 PDT

HST 1 20580U 90037B 12272.20342134 .00002666 00000-0 18200-3 0 790 2 20580 028.4698 189.2479 0003213 083.3903 276.7156 15.02825422 30243 ISS (ZARYA) 1 25544U 98067A 12273.40983248 .00021243 00000-0 37271-3 0 3835 2 25544 051.6477 323.4220 0017703 113.0704 258.9427 15.50329768794218 CXO 1 25867U 99040B 12274.73288488 -.00000081 00000-0 00000+0 0 7979 2 25867 073.4514 357.0738 8728151 278.1725 000.4911 00.37805446 9552 ____________________________________________________________________ These 2-Line ...Continue Reading
  • This mailing list is a public mailing list - anyone may join or leave, at any time.
  • This mailing list is announce-only.

International Space Station (ISS) / Hubble Space Telescope (HST) / Chandra X-Ray Observatory Orbital Data via EMAIL

Privacy Policy:

Private list